Simultaneous Nadir Overpasses (SNOs) Predictions

Prediction of SNOs between GOES-16 and NPP Satellite Orbit:

Table of predicted SNOs for the next 14.0 days since TLE Epoch: 1/8/2018
Index Date Time (GOES-16) GOES-16 Lat,Lon NPP Lat,Lon Distance(km) Time Diff (sec)
1 01/09/2018 06:38:46 0.01, -75.17 0.62, -78.03 324.35 80
2 01/10/2018 06:17:20 0.01, -75.17 -0.38, -73.49 192.49 80
3 01/11/2018 18:39:16 -0.01, -75.21 -0.80, -78.79 407.60 80
4 01/12/2018 18:23:10 -0.01, -75.22 0.20, -74.25 109.61 80
5 01/14/2018 06:44:57 0.02, -75.20 0.97, -79.52 492.80 80
6 01/15/2018 06:23:32 0.01, -75.20 -0.03, -74.99 24.54 80
7 01/17/2018 18:29:22 -0.01, -75.26 -0.14, -75.75 57.16 80
8 01/18/2018 18:07:57 -0.01, -75.27 0.92, -71.23 460.74 80
9 01/20/2018 06:32:24 0.01, -75.26 0.30, -76.49 140.49 80
10 01/21/2018 06:10:59 0.00, -75.28 -0.76, -71.97 377.60 80




NCC Satellite Simultaneous Nadir Overpasses (SNOs) Prediction Service
